Las Rosas, Mexico

1:59 AM CST on January 16, 2018 (GMT -0600)
Las Rosas

Weather History for 76556 - September, 2013

Change the Weather History Date:

Friday, September 20, 2013

  Actual Average Record
Temperature  
Mean Temperature 76 °F -  
Max Temperature 83 °F 82 °F - ()
Min Temperature 69 °F 62 °F - ()
Cooling Degree Days 11    
Growing Degree Days 26 (Base 50)    
Moisture  
Dew Point 70 °F    
Average Humidity 83    
Maximum Humidity 100    
Minimum Humidity 61    
Precipitation  
Precipitation 0.02 in - - ()
Sea Level Pressure  
Sea Level Pressure 29.90 in    
Wind  
Wind Speed 3 mph ()    
Max Wind Speed 9 mph    
Max Gust Speed -    
Visibility 8.7 miles    
Events Rain    
T = Trace of Precipitation, MM = Missing Value Source: Averaged Metar Reports

Daily Weather History Graph

Daily Weather History Graph

Search for Another Location

Airport or City:

Trip Planner

Search our weather history database for the weather conditions in past years. The results will help you decide how hot, cold, wet, or windy it might be!

Date:

Astronomy

Sep. 20, 2013 Rise Set
Actual Time 7:47 AM CDT 7:57 PM CDT
Civil Twilight 7:25 AM CDT 8:19 PM CDT
Nautical Twilight 6:59 AM CDT 8:45 PM CDT
Astronomical Twilight 6:33 AM CDT 9:11 PM CDT
Moon 8:51 PM CDT (9/20) 8:50 AM CDT (9/20)
Length of Visible Light 12h 53m
Length of Day
12h 09m
Full, 98% of the Moon is Illuminated
Sep 20
Full
Sep 26
Last Quarter
Oct 4
New
Oct 11
First Quarter
Oct 18
Full

Hourly Weather History & Observations

Time (CDT) Temp. Heat Index Dew Point Humidity Pressure Visibility Wind Dir Wind Speed Gust Speed Precip Events Conditions
12:47 AM 73 °F - 71 °F 90% 29.82 in 6 mi Calm Calm - -   Partly Cloudy
3:45 AM 72 °F - 70 °F 92% 29.81 in 6 mi NW 4.5 mph - - Rain Light Drizzle
6:45 AM 71 °F - 70 °F 94% 29.80 in 6 mi Calm Calm - - Rain Light Drizzle
7:20 AM 69.8 °F - 69.8 °F 100% 30.02 in 6.0 mi Calm Calm - N/A   Overcast
7:49 AM 69.8 °F - 69.8 °F 100% 30.00 in 7.0 mi Calm Calm - N/A   Overcast
9:01 AM 69.8 °F - 68.0 °F 94% 30.03 in 3.0 mi Calm Calm - N/A   Overcast
9:45 AM 71 °F - 69 °F 89% 29.83 in 7 mi North 4.5 mph - -   Mist
9:59 AM 71.6 °F - 69.8 °F 94% 29.92 in 8.0 mi Calm Calm - N/A   Mostly Cloudy
10:48 AM 75.2 °F - 69.8 °F 83% 30.04 in 10.0 mi Calm Calm - N/A   Mostly Cloudy
11:48 AM 78.8 °F - 71.6 °F 78% 30.03 in 10.0 mi Calm Calm - N/A   Mostly Cloudy
12:45 PM 80 °F - 69 °F 61% 29.79 in 12 mi WNW 4.5 mph - -   Partly Cloudy
12:49 PM 80.6 °F 84.6 °F 71.6 °F 74% 29.86 in 12.0 mi Calm Calm - N/A   Mostly Cloudy
1:55 PM 84.2 °F 88.4 °F 69.8 °F 62% 30.00 in 12.0 mi Calm Calm - N/A   Mostly Cloudy
2:52 PM 80.6 °F 84.6 °F 71.6 °F 74% 30.00 in 12.0 mi North 6.9 mph - N/A   Overcast
3:46 PM 81 °F - 72 °F 68% 29.75 in 12 mi SW 8.9 mph - -   Mostly Cloudy
3:52 PM 78.8 °F - 71.6 °F 78% 29.83 in 12.0 mi North 9.2 mph - N/A   Overcast
4:51 PM 78.8 °F - 71.6 °F 78% 29.98 in 10.0 mi North 9.2 mph - N/A   Overcast
5:51 PM 75.2 °F - 69.8 °F 83% 29.98 in 8.0 mi SE 5.8 mph - N/A   Overcast
6:46 PM 81 °F - 72 °F 67% 29.71 in 12 mi SW 8.9 mph - -   Partly Cloudy
6:50 PM 75.2 °F - 69.8 °F 83% 29.78 in 8.0 mi South 5.8 mph - N/A   Overcast
7:52 PM 73.4 °F - 71.6 °F 94% 29.98 in 8.0 mi SW 6.9 mph - N/A   Overcast
8:43 PM 71.6 °F - 69.8 °F 94% 30.00 in 8.0 mi South 6.9 mph - N/A   Overcast
9:45 PM 73 °F - 69 °F 84% 29.78 in 6 mi WNW 6.7 mph - -   Mostly Cloudy